Regional Weather Roundup
Issued by NWS Upton, NY

Current Version | Previous Version | Text Only | Print | Product List | Glossary On
Versions: 1 2 3 4 5 6 7 8 9 10 11 12 13 14 15 16 17 18 19 20 21 22 23 24 25 26 27 28 29 30 31 32 33 34 35 36 37 38 39 40 41 42 43 44 45 46 47 48 49 50
000
ASUS41 KOKX 280204
RWROKX

REGIONAL WEATHER ROUNDUP
NATIONAL WEATHER SERVICE NEW YORK NY
1000 PM EDT THU AUG 27 2015

NOTE: "FAIR" INDICATES FEW OR NO CLOUDS BELOW 12,000 FEET WITH NO
SIGNIFICANT WEATHER AND/OR OBSTRUCTIONS TO VISIBILITY.

NYZ071-072-176-178-NJZ106-104-280300-
NEW YORK CITY METRO AREA


CITY           SKY/WX    TMP DP  RH WIND       PRES   REMARKS
CENTRAL PARK   CLEAR     73  51  46 VRB5      30.13R
LAGUARDIA APRT PTCLDY    73  53  49 NW10      30.10R
KENNEDY INTL   PTCLDY    73  49  42 NW8       30.11R
NEWARK/LIBERTY PTCLDY    72  53  51 NW7       30.10R
BRNX BOT. GARD   N/A     70  52  52 NW8       30.10S
TETERBORO      CLEAR     68  51  54 NW5       30.10R
$$

NYZ177-179-078>081-280300-
LONG ISLAND NEW YORK

CITY           SKY/WX    TMP DP  RH WIND       PRES   REMARKS
FARMINGDALE    CLEAR     71  54  54 NW6       30.10R
ISLIP          PTCLDY    68  55  63 W5        30.08R
SHIRLEY        PTCLDY    68  56  65 NW6       30.10R
WESTHAMPTON    PTCLDY    63  52  67 NW3       30.10R
MONTAUK POINT    N/A     72  62  71 NW3       30.09R
$$

NYZ052-065-067-280300-
HUDSON VALLEY

CITY           SKY/WX    TMP DP  RH WIND       PRES   REMARKS
WHITE PLAINS   CLEAR     66  54  65 NW5       30.11R
NEWBURGH       CLEAR     64  57  77 W7        30.13R
MONTGOMERY     CLEAR     60  56  86 CALM      30.12R
POUGHKEEPSIE   CLEAR     63  56  78 N3        30.11R
ALBANY         MOCLDY    66  54  65 W14       30.11R
$$

NJZ001-105-106-008-010-013-015-019>022-104-280300-
NEW JERSEY

CITY           SKY/WX    TMP DP  RH WIND       PRES   REMARKS
NEWARK/LIBERTY PTCLDY    72  53  51 NW7       30.10R
TETERBORO      CLEAR     68  51  54 NW5       30.10R
CALDWELL       CLEAR     64  53  67 CALM      30.12R
MORRISTOWN     PTCLDY    64  55  72 NW6       30.12R
SOMERVILLE     CLEAR     62  56  80 CALM      30.10R
SUSSEX         CLEAR     57  54  89 CALM      30.14R
ANDOVER          N/A     57  56  96 CALM      30.14R
TRENTON        CLEAR     67  54  63 CALM      30.12R
MILLVILLE      CLEAR     62  57  83 W3        30.12R
ATLANTIC CITY  CLEAR     65  57  75 CALM      30.12R
WRIGHTSTOWN    CLEAR     65  55  70 NW5       30.10R
TOMS RIVER     PTCLDY    64  55  72 NW5       30.12R
BELMAR         CLEAR     66  52  59 NW3       30.11S
$$

PAZ047>061-062-071-280300-
EASTERN PENNSYLVANIA

CITY           SKY/WX    TMP DP  RH WIND       PRES   REMARKS
PHILADELPHIA   CLEAR     73  53  49 NW7       30.13R
ALLENTOWN      CLEAR     63  54  72 NW3       30.14R
SCRANTON       CLOUDY    64  55  72 E3        30.16R
$$

CTZ002-004>006-009-010-012-RIZ004-006-007-MAZ004-011-015-280300-
SOUTHERN NEW ENGLAND
 IN CT

CITY           SKY/WX    TMP DP  RH WIND       PRES   REMARKS
BRADLEY INTL   MOCLDY    66  54  65 NW6       30.08R
HARTFORD       CLEAR     70  56  61 CALM      30.08R
DANBURY        CLEAR     62  55  77 SW3       30.12R
WTRBRY/OXFORD  FAIR      61  52  72 NW3       30.12S
BRIDGEPORT     CLEAR     71  57  61 NW9       30.09R
MERIDEN        FAIR      62  56  80 CALM      30.09R
NEW HAVEN      CLEAR     70  56  61 NW3       30.09R
CHESTER        NOT AVBL
GROTON         PTCLDY    65  57  75 N5        30.07R
WILLIMANTIC    CLEAR     64  57  78 CALM      30.08R

 IN RI

CITY           SKY/WX    TMP DP  RH WIND       PRES   REMARKS
PROVIDENCE     PTCLDY    68  56  65 W6        30.07R
BLOCK ISLAND   PTCLDY    70  63  78 W5        30.07R
WESTERLY       PTCLDY    65  57  75 CALM      30.08R

 IN MA

CITY           SKY/WX    TMP DP  RH WIND       PRES   REMARKS
BOSTON         PTCLDY    72  54  53 NW7       30.05R
WORCESTER      CLEAR     63  54  72 W12       30.09R
WESTFIELD      CLEAR     65  55  70 CALM      30.09R
PROVINCETOWN   PTCLDY    66  57  72 W7        30.04R
NANTUCKET      PTCLDY    70  64  81 W8        30.05R
$$

ANZ330-335-338-340-345-350-353-355-280300-
COASTAL MARINE OBSERVATIONS


STATION/POSITION TIME  SKY/WX   TEMP    WIND        PRES    VSBY  WAVE
                                AIR SEA DIR/SP/G                  HT/PER
                 (UTC)          (F)     (DEG/KT/KT) (MB)    (MI)  (FT/S)
NY HARB ENTRANCE 0050            75 76  320/ 14/ 16 1018.2          2/10
4S FIRE IS       NOT AVBL
20S FIRE ISLAND  0050            74 75  280/ 12/ 16 1018.0          2/10
GREAT SOUTH BAY  0100            72 79   CALM  /  2   N/A
23SW MTP         0150            74 74  290/ 10/ 10 1017.9          3/10
HUDSON CANYON    NOT AVBL
KINGS POINT      0100            73 74  360/ 10/ 12 1018.1
EXECUTION ROCKS  0100            73     270/  8/ 10   N/A
CENTRAL LI SOUND NOT AVBL
EASTERN LI SOUND 0100            72 71  310/  4/  4   N/A
ROBBINS REEF     0100            73     300/  9/ 10 1018.0
$$


>>>>>>>>>>>>>>>>>>>>>>>>>>>> KEY <<<<<<<<<<<<<<<<<<<<<<<<<<<
>                                                          <
>     SKY/WX - SKY CONDITION/PRESENT WEATHER               <
>     TMP    - TEMPERATURE IN FAHRENHEIT                   <
>     DP     - DEWPOINT IN FAHRENHEIT                      <
>     RH     - RELATIVE HUMIDITY IN PERCENT                <
>     WIND   - DIRECTION AND SPEED IN MPH                  <
>     PRES   - MEAN SEA LEVEL PRESSURE IN INCHES OF HG     <
>     WCI    - WIND CHILL INDEX                            <
>     VSB    - VISIBILITY IN MILES                         <
>     HX     - HEAT INDEX                                  <
>     TC     - TEMPERATURE IN CELSIUS                      <
>     VRB    - VARIABLE WIND DIRECTION                     <
>                                                          <
>>>>>>>>>>>>>>>>>>>>>>>>>>>> KEY <<<<<<<<<<<<<<<<<<<<<<<<<<<





USA.gov is the U.S. government's official web portal to all federal, state and local government web resources and services.